Location: Chaume
(47.2636°N, 3.2755°E)
Time: 09:03:40
(UTC+00:00)

Daily predictions for brighter satellites

Satellite Brightness Start Highest point End
(mag) Time Altitude Azimuth Time Altitude Azimuth Time Altitude Azimuth
In-Cosmos 22 4.2 16:54:10 10° S 16:59:33 87° W 17:04:53 10° N
Iridium 4 Rocket 3.9 16:56:12 10° SSW 17:00:15 52° W 17:04:22 10° N
Cosmos 1048 Rocket 4.5 16:55:36 10° N 17:00:23 36° ENE 17:05:06 10° SE
Cosmos 1300 3.8 16:58:36 10° NNE 17:01:42 23° ENE 17:04:46 10° SE
SL-14 R/B 4.5 17:00:15 10° SE 17:03:29 24° E 17:06:43 10° NE
SJ 16-02 2.2 17:02:06 10° SW 17:06:25 52° WNW 17:10:46 10° NNE
SL-16 R/B 3.9 17:05:05 10° N 17:07:41 13° NNE 17:10:17 10° ENE
Cosmos 2184 Rocket 4.1 17:02:28 10° SSE 17:08:26 53° E 17:14:24 10° NNE
KORONAS-FOTON 3.7 17:05:35 10° S 17:09:20 66° E 17:13:06 10° NNE
Cosmos 2228 3.7 17:06:05 10° NNW 17:10:22 59° W 17:14:36 10° S
Cosmos 1271 Rocket 3.3 17:08:05 10° SSE 17:11:29 35° E 17:14:56 10° NNE
RESURS DK-1 4.3 17:08:20 10° NW 17:12:09 35° WSW 17:15:56 10° S
Cosmos 1726 3.2 17:08:50 10° NNW 17:12:22 48° W 17:15:53 10° S
Cosmos 1833 4.3 17:08:20 10° SSW 17:14:01 88° ESE 17:19:48 10° NNE
Cosmos 372 Rocket 4.2 17:10:02 10° S 17:14:58 51° ESE 17:19:58 10° NNE
Cosmos 2154 Rocket 4.5 17:10:25 10° SSE 17:16:10 39° E 17:21:54 10° NNE
Cosmos 1174 4.3 17:13:38 10° NW 17:16:40 51° WSW 17:20:04 10° SSE
Cosmos 2333 4.2 17:13:13 10° NNW 17:19:00 84° ENE 17:24:41 10° SSE
Cosmos 1892 Rocket 3.8 17:15:46 10° SSW 17:20:14 76° W 17:24:44 10° N
ATLAS 5 CENTAUR R/B 1.8 17:16:29 10° SW 17:20:42 71° NW 17:25:29 10° NE
Cosmos 2322 3.8 17:15:10 10° NNW 17:20:52 85° WSW 17:26:32 10° SSE
Cosmos 2298 Rocket 4.1 17:20:43 10° S 17:25:57 66° ESE 17:31:14 10° NNE
Cosmos 1812 Rocket 4.1 17:23:43 10° N 17:27:54 38° ENE 17:32:04 10° SE
CZ-4 R/B 1.9 17:25:27 10° SE 17:29:07 35° ENE 17:32:52 10° N
ADEOS Rocket 4.5 17:24:58 10° NE 17:29:18 18° E 17:33:52 10° SE
CZ-4B R/B 4.2 17:28:17 10° NW 17:29:33 12° WNW 17:30:48 10° W
Cosmos 1980 4.3 17:25:59 10° NNW 17:31:11 35° NE 17:36:21 10° ESE
Cosmos 1626 2.5 17:28:31 10° SSE 17:32:01 41° E 17:35:32 10° NNE
Okean 1-7 Rocket 4.1 17:28:19 10° SSW 17:32:39 61° WNW 17:37:02 10° N
Cosmos 2297 Rocket 3.7 17:29:27 10° SE 17:32:44 16° E 17:34:16 14° E
H-2A R/B 3.9 17:30:03 10° S 17:33:44 47° W 17:37:29 10° NNW
CZ-4C R/B 2.9 17:26:50 10° NW 17:33:49 64° NE 17:41:53 10° SE
H-2A R/B 3.9 17:37:33 10° NE 17:37:33 10° NE 17:37:50 10° NE
YAOGAN 1 3.1 17:33:01 10° SE 17:36:57 36° ENE 17:40:56 10° N
Cosmos 2360 Rocket 3.8 17:32:05 10° NW 17:37:17 38° WSW 17:42:26 10° S
Ariane Rocket 4.2 17:35:53 10° ESE 17:39:33 21° ENE 17:43:13 10° NNE
YAOGAN 6 2.5 17:36:04 10° SSE 17:39:44 71° ENE 17:43:25 10° N
Cosmos 2074 Rocket 4.1 17:34:10 10° S 17:40:28 88° W 17:46:49 10° N
COSMOS 2428 2.7 17:34:42 10° NNW 17:40:29 82° ENE 17:46:14 10° SSE
USA 267 3.8 17:35:54 12° NE 17:41:41 48° NNW 17:47:54 10° W
NOAA 12 4.3 17:37:14 10° S 17:42:27 74° WSW 17:47:42 10° NNW
Cosmos 2058 Rocket 4.2 17:39:08 10° NNW 17:43:19 46° W 17:47:29 10° SSW
Cosmos 494 Rocket 4.2 17:38:21 10° NNW 17:43:19 47° ENE 17:48:14 10° SE
Cosmos 2227 Rocket 3.5 17:40:43 10° SE 17:44:24 18° E 17:45:23 17° E
Cosmos 1242 Rocket 2.4 17:41:20 10° S 17:44:48 69° E 17:48:19 10° NNE
Cosmos 2219 Rocket 2.2 17:40:44 10° NNW 17:46:28 88° WSW 17:52:09 10° SSE
NOAA 11 4.4 17:41:46 10° SE 17:46:59 45° ENE 17:52:12 10° N
Starlink AQ 2.7 17:46:07 10° SW 17:48:55 60° SSE 17:49:59 32° E
Starlink AS 2.7 17:48:45 10° SW 17:51:33 64° SSE 17:52:31 35° E
Starlink BA 2.7 17:48:57 10° SW 17:51:44 64° SSE 17:52:42 36° E
Starlink AU 2.7 17:49:08 10° SW 17:51:56 64° SSE 17:52:53 36° E
Starlink AT 2.7 17:49:21 10° SW 17:52:09 64° SSE 17:53:05 36° E
Starlink BB 2.6 17:49:32 10° SW 17:52:21 65° SSE 17:53:17 36° E
Starlink BC 2.6 17:49:45 10° SW 17:52:34 65° SSE 17:53:29 37° E
Starlink BK 2.6 17:49:57 10° SW 17:52:45 65° SSE 17:53:40 37° E
Starlink AY 2.6 17:50:09 10° SW 17:52:58 66° SSE 17:53:52 37° E
Starlink AW 2.6 17:50:22 10° SW 17:53:12 66° SSE 17:54:07 37° ENE
Starlink BJ 2.6 17:50:30 10° SW 17:53:19 66° SSE 17:54:13 38° ENE
Cosmos-2242 3.8 17:49:41 10° NNE 17:53:27 28° ENE 17:57:10 10° SE
Starlink AV 2.6 17:50:42 10° SW 17:53:31 66° SSE 17:54:24 38° ENE
Starlink BD 2.6 17:50:54 10° SW 17:53:43 67° SSE 17:54:36 38° ENE
Starlink BE 2.6 17:51:07 10° SW 17:53:57 67° SSE 17:54:51 38° ENE
Starlink BM 2.6 17:51:18 10° SW 17:54:07 67° SSE 17:54:59 39° ENE
Starlink AX 2.6 17:51:31 10° SW 17:54:21 68° SSE 17:55:14 38° ENE
Starlink BH 2.6 17:51:43 10° SW 17:54:32 68° SSE 17:55:23 39° ENE
USA 32 4.3 17:49:36 10° SSE 17:54:32 44° E 17:59:30 10° NNE
Starlink AZ 2.6 17:51:55 10° SW 17:54:44 68° SSE 17:55:34 39° ENE
Starlink BG 2.6 17:52:08 10° SW 17:54:56 69° SSE 17:55:47 40° ENE
Starlink BF 2.6 17:52:19 10° SW 17:55:09 69° SSE 17:55:58 40° ENE
Starlink BL 2.6 17:52:30 10° SW 17:55:20 69° SSE 17:56:11 40° ENE
Starlink AH 2.6 17:52:41 10° SW 17:55:30 69° SSE 17:56:19 40° ENE
Starlink AC 2.6 17:52:54 10° SW 17:55:44 70° SSE 17:56:34 40° ENE
Starlink X 2.6 17:53:04 10° SW 17:55:53 70° SSE 17:56:42 41° ENE
Starlink AE 2.6 17:53:17 10° SW 17:56:08 71° SSE 17:56:58 41° ENE
Cosmos 1602 Rocket 3.4 17:51:45 10° S 17:56:09 73° E 18:00:31 10° NNE
Starlink Z 2.6 17:53:29 10° SW 17:56:18 71° SSE 17:57:05 42° ENE
Starlink AK 2.6 17:53:42 10° SW 17:56:31 71° SSE 17:57:19 42° ENE
Starlink AL 2.6 17:53:54 10° SW 17:56:44 71° SSE 17:57:31 42° ENE
Starlink AD 2.6 17:54:04 10° SW 17:56:54 71° SSE 17:57:40 42° ENE
Starlink Y 2.6 17:54:29 10° SW 17:57:19 72° SSE 17:58:04 43° ENE
Starlink AG 2.6 17:54:41 10° SW 17:57:31 72° SSE 17:58:16 43° ENE
Starlink W 2.6 17:54:53 10° SW 17:57:43 73° SSE 17:58:28 44° ENE
Starlink AJ 2.6 17:55:04 10° SW 17:57:53 73° SSE 17:58:37 44° ENE
Starlink AM 2.6 17:55:26 10° SW 17:58:16 73° SSE 17:59:00 45° ENE
Starlink AP 2.5 17:55:39 10° SW 17:58:29 74° SSE 17:59:12 45° ENE
Starlink AA 2.5 17:55:50 10° SW 17:58:41 74° SSE 17:59:23 45° ENE
Starlink AF 2.6 17:56:05 10° SW 17:58:56 75° SSE 17:59:39 45° ENE
Starlink AB 2.5 17:56:17 10° SW 17:59:08 75° SSE 17:59:49 46° ENE
Starlink AN 2.5 17:56:26 10° SW 17:59:17 75° SSE 17:59:58 46° ENE
Nadezhda 3 Rocket 4.0 17:53:13 10° N 17:59:31 87° E 18:05:51 10° S
Cosmos 2150 Rocket 4.2 17:55:01 10° SSW 18:00:09 73° WNW 18:05:20 10° NNE
Okean-O 3.3 17:56:33 10° S 18:00:55 57° W 18:05:19 10° NNW
COSMO-SKYMED 1 2.5 17:58:00 10° NNE 18:02:23 81° ESE 18:06:43 10° SSW
Timation 2 Rocket 3.9 17:59:33 10° SSW 18:05:37 87° ESE 18:11:35 12° NNE
Starlink T 2.5 18:04:44 10° WSW 18:07:34 88° SE 18:07:56 64° ENE
Starlink N 2.4 18:05:30 10° WSW 18:08:19 89° SE 18:08:39 66° ENE
Starlink AR 2.2 18:07:23 10° WSW 18:09:53 82° NW 18:09:53 82° NW
Starlink Q 2.4 18:07:07 10° WSW 18:09:56 88° NNW 18:10:13 70° ENE
Starlink P 2.4 18:08:09 10° WSW 18:11:00 87° NNW 18:11:14 72° NE
Starlink U 2.4 18:09:20 10° WSW 18:12:10 85° NNW 18:12:22 75° NE
Cosmos 1758 Rocket 3.7 18:08:35 10° SSE 18:12:43 47° E 18:14:38 28° NE
Starlink B 2.4 18:10:35 10° WSW 18:13:26 83° NNW 18:13:34 77° NNE
Cosmos 1461 4.1 18:11:29 10° NW 18:15:39 47° WSW 18:19:57 10° SSE
Cosmos 2341 Rocket 4.0 18:10:18 10° S 18:16:36 65° E 18:22:54 10° NNE
Starlink D 2.6 18:14:05 10° WSW 18:16:58 78° NNW 18:17:01 78° N
Starlink S 2.6 18:15:18 10° WSW 18:18:11 77° NNW 18:18:11 77° NNW
Starlink C 2.6 18:16:27 10° WSW 18:19:19 75° NW 18:19:19 75° NW
Cosmos 1626 Rocket 4.4 18:15:40 10° SSW 18:19:53 50° WNW 18:24:07 10° N
Starlink E 2.7 18:17:41 10° WSW 18:20:30 73° NW 18:20:30 73° NW
CZ-2D R/B 3.1 18:16:50 10° SSE 18:20:37 72° ENE 18:24:27 10° N
Starlink J 2.8 18:18:54 10° WSW 18:21:40 70° NW 18:21:40 70° NW
CSL-04 Debris 4.1 18:16:47 10° SSE 18:22:10 89° W 18:27:37 10° NNW
Cosmos 1125 Rocket 3.5 18:16:59 10° SSW 18:22:11 82° WNW 18:26:29 16° NNE
Starlink V 2.9 18:20:07 10° WSW 18:22:50 68° WNW 18:22:50 68° WNW
Starlink H 2.9 18:21:20 10° WSW 18:24:01 65° WNW 18:24:01 65° WNW
Starlink F 3.0 18:22:35 10° WSW 18:25:12 62° WNW 18:25:12 62° WNW
SL-8 Rocket 4.0 18:20:00 10° SSE 18:26:07 56° E 18:32:16 10° NNE
Starlink G 3.1 18:23:48 10° WSW 18:26:23 60° WNW 18:26:23 60° WNW
Cosmos 1340 Rocket 3.5 18:23:48 10° NNW 18:27:39 54° W 18:31:31 10° S
Meteor 1-21 Rocket 4.1 18:22:23 10° S 18:27:54 68° E 18:33:32 10° NNE
Starlink L 3.2 18:25:03 10° WSW 18:27:34 57° WNW 18:27:34 57° WNW
NOSS 0 Rocket 4.1 18:21:48 10° NNW 18:28:02 76° WSW 18:34:12 10° SSE
Starlink A 3.3 18:26:17 10° WSW 18:28:46 54° WNW 18:28:46 54° WNW
Cosmos 2333 Rocket 3.6 18:23:59 10° NW 18:29:18 40° WSW 18:34:33 10° S
Starlink R 3.4 18:27:32 10° WSW 18:29:58 52° WNW 18:29:58 52° WNW
ATLAS CENTAUR R/B 4.3 18:24:45 10° W 18:30:47 61° NNW 18:41:31 22° NE
Starlink K 3.5 18:28:45 10° WSW 18:31:08 50° WNW 18:31:08 50° WNW
Starlink M 3.6 18:29:56 10° WSW 18:32:17 48° WNW 18:32:17 48° WNW
Cosmos 2237 Rocket 2.1 18:28:20 10° NNW 18:34:01 86° ENE 18:39:39 10° SSE
Cosmos 1269 Rocket 4.0 18:30:00 10° NNW 18:35:18 85° WSW 18:40:35 10° SSE
Meteor 2-10 Rocket 3.5 18:33:05 10° N 18:38:31 63° ENE 18:43:40 10° SSE
Cosmos 1825 Rocket 3.4 18:35:06 10° S 18:39:27 80° E 18:40:38 48° NNE
Cosmos 1939 Rocket 3.0 18:36:49 10° S 18:40:40 68° W 18:44:36 10° NNW
Cosmos 1607 4.4 18:40:02 10° SW 18:46:02 55° NW 18:49:39 24° NNE
ATLAS CENTAUR R/B 3.7 18:47:48 10° NNW 18:48:43 14° N 18:48:43 14° N
Cosmos 2218 Rocket 3.9 18:46:40 10° S 18:52:56 74° E 18:59:20 10° NNE
SL-16 R/B 2.4 18:47:42 10° NNW 18:52:43 49° NE 18:52:43 49° NE
CSL-04 Rocket 4.5 18:48:08 10° S 18:53:26 52° W 18:58:51 10° NNW
NOSS 2-1 (E) 4.3 18:48:35 10° NW 18:53:55 74° NE 18:55:53 47° ESE
Cosmos 2219 3.1 18:51:47 10° SSW 18:57:24 84° WNW 18:59:14 45° NNE
Cosmos 1339 Rocket 4.4 18:56:40 10° N 19:02:46 82° W 19:08:51 10° S
CZ-4 R/B 3.9 19:01:05 10° SW 19:04:15 22° W 19:07:29 10° NW
ATLAS 5 CENTAUR R/B 3.8 19:03:00 10° WNW 19:06:18 19° NNW 19:07:27 18° N
Cosmos 864 Rocket 4.3 19:00:23 10° S 19:06:30 83° E 19:11:02 19° N
H-2A R/B 3.7 19:18:09 21° N 19:18:09 21° N 19:19:49 10° N
ADEOS Rocket 3.1 19:10:31 18° NNE 19:15:26 88° WNW 19:22:31 10° SSW
Cosmos 2297 Rocket 2.1 19:10:20 10° SSW 19:15:59 85° WNW 19:16:08 84° NNW
Ariane Rocket 3.3 19:15:33 30° S 19:18:02 64° WSW 19:23:06 10° NNW
CZ-4C R/B 4.1 19:15:37 10° NW 19:22:22 40° WSW 19:29:52 10° S
USA 267 4.0 19:23:15 37° NNE 19:23:56 38° N 19:29:50 10° WNW
Cosmos 2227 Rocket 2.3 19:22:07 10° SSW 19:27:17 71° WSW 19:27:17 71° WSW
Cosmos 2366 rocket 4.3 19:26:43 10° SSW 19:32:50 62° WNW 19:39:05 10° N
ATLAS 5 CENTAUR R/B 3.7 19:36:25 10° NW 19:40:33 59° NNE 19:40:33 59° NNE
SL-16 R/B 4.4 20:32:17 10° NW 20:34:38 21° WNW 20:34:38 21° WNW
